sat.trackr.live / text

‹ back to catalog

QIANFAN-74

NORAD 63160 · 2025-046B

PAYLOAD ACTIVE UNKNOWN

§ Identity

Operator
Country
PRC
Launch date
2025-03-11
Launch site
WSC
Launch vehicle
Mass (kg)
RCS (m²)

External: N2YO · Heavens-Above · Gunter

§ Orbital elements

Epoch: 2026-05-25T04:40:44.316768Z

Period
106.59 min
Inclination
88.9690°
Eccentricity
0.0001877
Mean motion
13.51004183 rev/d
Perigee alt
1,067.2 km
Apogee alt
1,070.0 km
Semi-major
7,446.7 km
B*
1.2809e-4
RAAN
302.9667°
Arg perigee
100.7131°
Mean anomaly
259.4232°
Rev number
6,954

§ Raw data

QIANFAN-741 63160U 25046B   26145.19495737  .00000095  00000+0  12809-3 0  99922 63160  88.9690 302.9667 0001877 100.7131 259.4232 13.51004183 69544

JSON: /api/v1/satellites/63160 · /tle

For live sub-satellite position, see the globe view (requires WebGL).

§ Visibility from observer

Set your observer location to see the next 7 days of passes ≥ 10°. The values pass through the URL so the page stays shareable.

No JS? Fill the form by hand. The geolocation button needs JavaScript.